datetime,storage
2016-03-12,13396.0
2016-03-13,13415.2
2016-03-14,13429.6
2016-03-15,13468.0
2016-03-16,13501.6
2016-03-17,13530.7
2016-03-18,13550.3
2016-03-19,13584.2
2016-03-20,13622.8
2016-03-21,13671.6
2016-03-22,13719.6
2016-03-23,13767.8
2016-03-24,13802.1
2016-03-25,13835.8
2016-03-26,13879.5
2016-03-27,13908.8
2016-03-28,13928.0
2016-03-29,13971.6
2016-03-30,14005.9
2016-03-31,14030.4
2016-04-01,14045.1
2016-04-02,14064.7
2016-04-03,14084.3
2016-04-04,14113.7
2016-04-05,14128.4
2016-04-06,14167.6
2016-04-07,14216.6
2016-04-08,14241.1
2016-04-09,14246.0
2016-04-10,14216.6
2016-04-11,14206.8
2016-04-12,14182.3
2016-04-13,14157.8
2016-04-14,14167.6
2016-04-15,14206.8
2016-04-16,14246.0
2016-04-17,14241.1
2016-04-18,14221.5
2016-04-19,14148.0
2016-04-20,14089.2
2016-04-21,14089.2
2016-04-22,14113.7
2016-04-23,14162.7
2016-04-24,14138.2
2016-04-25,14118.6
2016-04-26,14118.6
2016-04-27,14094.1
2016-04-28,14113.7
2016-04-29,14094.1
2016-04-30,14079.4
2016-05-01,14074.5
2016-05-02,14045.1
2016-05-03,14015.7
2016-05-04,14050.0
2016-05-05,14118.6
2016-05-06,14148.0
2016-05-07,14118.6
2016-05-08,14040.2
2016-05-09,14059.8
2016-05-10,14103.9
2016-05-11,14118.6
2016-05-12,14084.3
2016-05-13,14113.7
2016-05-14,14314.6
2016-05-15,14511.6
2016-05-16,14472.0
2016-05-17,14241.1
2016-05-18,14069.6
2016-05-19,14010.8
2016-05-20,14064.7
2016-05-21,14319.5
2016-05-22,14492.0
2016-05-23,14506.7
2016-05-24,14487.0
2016-05-25,14457.0
2016-05-26,14363.6
2016-05-27,14162.7
2016-05-28,14069.6
2016-05-29,14138.2
2016-05-30,14319.5
2016-05-31,14536.1
2016-06-01,14719.4
2016-06-02,14849.0
2016-06-03,15442.0
2016-06-04,16318.2
2016-06-05,17433.8
2016-06-06,18795.5
2016-06-07,20288.2
2016-06-08,21718.0
2016-06-09,23002.9
2016-06-10,24054.4
2016-06-11,24903.8
2016-06-12,25898.0
2016-06-13,26646.0
2016-06-14,27044.0
2016-06-15,27526.4
2016-06-16,28046.2
2016-06-17,28474.6
2016-06-18,28775.4
2016-06-19,29072.0
2016-06-20,29230.8
2016-06-21,29300.0
2016-06-22,29293.0
2016-06-23,29265.3
2016-06-24,29223.9
2016-06-25,29134.2
2016-06-26,29072.0
2016-06-27,28974.5
2016-06-28,28974.5
2016-06-29,28898.6
2016-06-30,28816.6
2016-07-01,28734.0
2016-07-02,28584.2
2016-07-03,28364.8
2016-07-04,28167.6
2016-07-05,27991.8
2016-07-06,27883.0
2016-07-07,27761.6
2016-07-08,27593.4
2016-07-09,27412.0
2016-07-10,27211.0
2016-07-11,27104.3
2016-07-12,26978.0
2016-07-13,26818.2
2016-07-14,26665.8
2016-07-15,26515.0
2016-07-16,26389.6
2016-07-17,26257.6
2016-07-18,26048.4
2016-07-19,25793.0
2016-07-20,25534.0
2016-07-21,25314.4
2016-07-22,25153.4
2016-07-23,24923.0
2016-07-24,24667.5
2016-07-25,24394.8
2016-07-26,24129.0
2016-07-27,23865.6
2016-07-28,23585.6
2016-07-29,23349.0
2016-07-30,23170.2
2016-07-31,22954.1
2016-08-01,22751.8
2016-08-02,22568.8
2016-08-03,22386.0
2016-08-04,22235.0
2016-08-05,22289.2
2016-08-06,22356.0
2016-08-07,22356.0
2016-08-08,22325.8
2016-08-09,22247.0
2016-08-10,22204.8
2016-08-11,22162.1
2016-08-12,22011.0
2016-08-13,21861.0
2016-08-14,21778.0
2016-08-15,21664.0
2016-08-16,21568.0
2016-08-17,21502.9
2016-08-18,21455.7
2016-08-19,21443.9
2016-08-20,21396.0
2016-08-21,21360.3
2016-08-22,21354.4
2016-08-23,21384.0
2016-08-24,21390.0
2016-08-25,21378.0
2016-08-26,21360.3
2016-08-27,21336.7
2016-08-28,21330.8
2016-08-29,21307.2
2016-08-30,21230.5
2016-08-31,21064.3
2016-09-01,20877.0
2016-09-02,20783.2
2016-09-03,20719.2
2016-09-04,20614.0
2016-09-05,20469.0
2016-09-06,20369.4
2016-09-07,20340.4
2016-09-08,20340.4
2016-09-09,20340.4
2016-09-10,20317.2
2016-09-11,20334.6
2016-09-12,20241.8
2016-09-13,20150.0
2016-09-14,20046.4
2016-09-15,19874.4
2016-09-16,19713.8
2016-09-17,19555.2
2016-09-18,19408.0
2016-09-19,19260.4
2016-09-20,19114.8
2016-09-21,19052.9
2016-09-22,18940.2
2016-09-23,18801.0
2016-09-24,18673.4
2016-09-25,18551.2
2016-09-26,18418.5
2016-09-27,18347.0
2016-09-28,18286.5
2016-09-29,18220.5
2016-09-30,18160.0
2016-10-01,18105.0
2016-10-02,18050.4
2016-10-03,18055.8
2016-10-04,17974.0
2016-10-05,17849.6
2016-10-06,17768.0
2016-10-07,17648.8
2016-10-08,17546.2
2016-10-09,17460.8
2016-10-10,17363.6
2016-10-11,17272.6
2016-10-12,17240.8
2016-10-13,17214.3
2016-10-14,17134.4
2016-10-15,17102.0
2016-10-16,17043.7
2016-10-17,16974.8
2016-10-18,16927.1
2016-10-19,16895.3
2016-10-20,16874.4
2016-10-21,16848.4
2016-10-22,16822.1
2016-10-23,16822.1
2016-10-24,16790.3
2016-10-25,16806.2
2016-10-26,16790.3
2016-10-27,16795.6
2016-10-28,16769.1
2016-10-29,16769.1
2016-10-30,16753.2
2016-10-31,16732.0
2016-11-01,16689.6
2016-11-02,16679.0
2016-11-03,16663.4
2016-11-04,16658.2
2016-11-05,16653.0
2016-11-06,16632.2
2016-11-07,16621.7
2016-11-08,16605.8
2016-11-09,16579.3
2016-11-10,16527.2
2016-11-11,16480.4
2016-11-12,16444.0
2016-11-13,16396.8
2016-11-14,16344.2
2016-11-15,16302.6
2016-11-16,16266.2
2016-11-17,16198.6
2016-11-18,16141.7
2016-11-19,16100.8
2016-11-20,16054.0
2016-11-21,16033.6
2016-11-22,15997.8
2016-11-23,15966.6
2016-11-24,15889.6
2016-11-25,15842.9
2016-11-26,15802.1
2016-11-27,15802.1
2016-11-28,15746.0
2016-11-29,15695.0
2016-11-30,15665.0
2016-12-01,15614.4
2016-12-02,15563.4
2016-12-03,15507.3
2016-12-04,15462.0
2016-12-05,15416.5
2016-12-06,15361.0
2016-12-07,15330.8
2016-12-08,15315.5
2016-12-09,15285.0
2016-12-10,15270.0
2016-12-11,15240.0
2016-12-12,15240.0
2016-12-13,15229.8
2016-12-14,15234.9
2016-12-15,15219.6
2016-12-16,15300.2
2016-12-17,15315.5
2016-12-18,15310.4
2016-12-19,15305.3
2016-12-20,15310.4
2016-12-21,15320.6
2016-12-22,15366.0
2016-12-23,15376.0
2016-12-24,15381.0
2016-12-25,15386.0
2016-12-26,15381.0
2016-12-27,15376.0
2016-12-28,15376.0
2016-12-29,15376.0
2016-12-30,15376.0
2016-12-31,15371.0
2017-01-01,15371.0
2017-01-02,15366.0
2017-01-03,15366.0
2017-01-04,15391.0
2017-01-05,15447.0
2017-01-06,15442.0
2017-01-07,15452.0
2017-01-08,15447.0
2017-01-09,15527.7
2017-01-10,15517.5
2017-01-11,15532.8
2017-01-12,15507.3
2017-01-13,15512.4
2017-01-14,15517.5
2017-01-15,15532.8
2017-01-16,15543.0
2017-01-17,15543.0
2017-01-18,15537.9
2017-01-19,15532.8
2017-01-20,15532.8
2017-01-21,15553.2
2017-01-22,15543.0
2017-01-23,15588.9
2017-01-24,15609.3
2017-01-25,15599.1
2017-01-26,15588.9
2017-01-27,15599.1
2017-01-28,15604.2
2017-01-29,15599.1
2017-01-30,15588.9
2017-01-31,15588.9
2017-02-01,15583.8
2017-02-02,15563.4
2017-02-03,15563.4
2017-02-04,15548.1
2017-02-05,15537.9
2017-02-06,15527.7
2017-02-07,15527.7
2017-02-08,15527.7
2017-02-09,15527.7
2017-02-10,15522.6
2017-02-11,15512.4
2017-02-12,15507.3
2017-02-13,15517.5
2017-02-14,15517.5
2017-02-15,15512.4
2017-02-16,15507.3
2017-02-17,15492.0
2017-02-18,15492.0
2017-02-19,15502.2
2017-02-20,15487.0
2017-02-21,15492.0
2017-02-22,15492.0
2017-02-23,15512.4
2017-02-24,15502.2
2017-02-25,15502.2
2017-02-26,15487.0
2017-02-27,15527.7
2017-02-28,15568.5
2017-03-01,15558.3
2017-03-02,15548.1
2017-03-03,15543.0
2017-03-04,15527.7
2017-03-05,15527.7
2017-03-06,15527.7
2017-03-07,15522.6
2017-03-08,15517.5
2017-03-09,15507.3
2017-03-10,15507.3
2017-03-11,15512.4
2017-03-12,15522.6
2017-03-13,15522.6
2017-03-14,15543.0
2017-03-15,15573.6
2017-03-16,15614.4
2017-03-17,15665.0
2017-03-18,15725.6
2017-03-19,15807.2
2017-03-20,15930.6
2017-03-21,16085.2
2017-03-22,16240.2
2017-03-23,16354.6
2017-03-24,16412.7
2017-03-25,16438.8
2017-03-26,16333.8
2017-03-27,16100.8
2017-03-28,15853.2
2017-03-29,15604.2
2017-03-30,15335.9
2017-03-31,15245.0
2017-04-01,15245.0
2017-04-02,15224.7
2017-04-03,15250.0
2017-04-04,15255.0
2017-04-05,15240.0
2017-04-06,15234.9
2017-04-07,15245.0
2017-04-08,15275.0
2017-04-09,15305.3
2017-04-10,15325.7
2017-04-11,15351.0
2017-04-12,15401.2
2017-04-13,15487.0
2017-04-14,15553.2
2017-04-15,15629.7
2017-04-16,15756.2
2017-04-17,15977.0
2017-04-18,16261.0
2017-04-19,16553.2
2017-04-20,16800.9
2017-04-21,16958.9
2017-04-22,17123.6
2017-04-23,17347.4
2017-04-24,17584.0
2017-04-25,17784.5
2017-04-26,17887.4
2017-04-27,17936.0
2017-04-28,17974.0
2017-04-29,17968.5
2017-04-30,17925.2
2017-05-01,17892.8
2017-05-02,17887.4
2017-05-03,17925.2
2017-05-04,17963.0
2017-05-05,18066.6
2017-05-06,18143.5
2017-05-07,18248.0
2017-05-08,18402.0
2017-05-09,18407.5
2017-05-10,18325.0
2017-05-11,18248.0
2017-05-12,18319.5
2017-05-13,18380.0
2017-05-14,18424.0
2017-05-15,18385.5
2017-05-16,18330.5
2017-05-17,18286.5
2017-05-18,18259.0
2017-05-19,18314.0
2017-05-20,18512.0
2017-05-21,18656.6
2017-05-22,18684.5
2017-05-23,18767.6
2017-05-24,18957.0
2017-05-25,19086.8
2017-05-26,19109.2
2017-05-27,19288.4
2017-05-28,19509.6
2017-05-29,19839.8
2017-05-30,20195.6
2017-05-31,20556.0
2017-06-01,21058.4
2017-06-02,21909.0
2017-06-03,22818.9
2017-06-04,23746.8
2017-06-05,24820.6
2017-06-06,25885.0
2017-06-07,27137.8
2017-06-08,28713.6
2017-06-09,30306.0
2017-06-10,31734.4
2017-06-11,33020.2
2017-06-12,34241.5
2017-06-13,34909.8
2017-06-14,35590.8
2017-06-15,36264.2
2017-06-16,36788.8
2017-06-17,37239.6
2017-06-18,37582.4
2017-06-19,37856.9
2017-06-20,38116.2
2017-06-21,38439.5
2017-06-22,38948.0
2017-06-23,39442.1
2017-06-24,39852.2
2017-06-25,39908.9
2017-06-26,39900.8
2017-06-27,39836.0
2017-06-28,39691.2
2017-06-29,39627.0
2017-06-30,39370.0
2017-07-01,39035.0
2017-07-02,38732.8
2017-07-03,38384.2
2017-07-04,37888.5
2017-07-05,37371.3
2017-07-06,36850.6
2017-07-07,36364.3
2017-07-08,35935.1
2017-07-09,35575.6
2017-07-10,35287.8
2017-07-11,35060.8
2017-07-12,34925.0
2017-07-13,34781.5
2017-07-14,34721.5
2017-07-15,34684.0
2017-07-16,34571.5
2017-07-17,34376.5
2017-07-18,34256.5
2017-07-19,34137.0
2017-07-20,34026.0
2017-07-21,33936.2
2017-07-22,33899.2
2017-07-23,33840.0
2017-07-24,33803.0
2017-07-25,33699.0
2017-07-26,33565.2
2017-07-27,33491.4
2017-07-28,33373.8
2017-07-29,33447.6
2017-07-30,33580.0
2017-07-31,33631.8
2017-08-01,33624.4
2017-08-02,33706.5
2017-08-03,33751.2
2017-08-04,33714.0
2017-08-05,33676.5
2017-08-06,33714.0
2017-08-07,33699.0
2017-08-08,33684.0
2017-08-09,33661.5
2017-08-10,33624.4
2017-08-11,33631.8
2017-08-12,33676.5
2017-08-13,33714.0
2017-08-14,33751.2
2017-08-15,33706.5
2017-08-16,33639.2
2017-08-17,33565.2
2017-08-18,33425.6
2017-08-19,33255.8
2017-08-20,33086.2
2017-08-21,32844.0
2017-08-22,32581.8
2017-08-23,32450.8
2017-08-24,32261.0
2017-08-25,32023.4
2017-08-26,31784.8
2017-08-27,31526.6
2017-08-28,31318.9
2017-08-29,31119.1
2017-08-30,30814.8
2017-08-31,30412.0
2017-09-01,30010.0
2017-09-02,29703.0
2017-09-03,29452.6
2017-09-04,29120.4
2017-09-05,28775.4
2017-09-06,28467.8
2017-09-07,28222.0
2017-09-08,28012.2
2017-09-09,27788.7
2017-09-10,27586.7
2017-09-11,27391.6
2017-09-12,27197.8
2017-09-13,26957.9
2017-09-14,26804.8
2017-09-15,26705.4
2017-09-16,26547.5
2017-09-17,26396.2
2017-09-18,26336.8
2017-09-19,26251.0
2017-09-20,26146.4
2017-09-21,26113.5
2017-09-22,26035.2
2017-09-23,26120.0
2017-09-24,26094.0
2017-09-25,25917.5
2017-09-26,25708.5
2017-09-27,
2017-09-28,25618.2
2017-09-29,25637.4
2017-09-30,25878.5
2017-10-01,26094.0
2017-10-02,26205.5
2017-10-03,26297.2
2017-10-04,26521.5
2017-10-05,26804.8
2017-10-06,26957.9
2017-10-07,26937.8
2017-10-08,26891.2
2017-10-09,26911.0
2017-10-10,26924.4
2017-10-11,26904.4
2017-10-12,26878.0
2017-10-13,26891.2
2017-10-14,26904.4
2017-10-15,26904.4
2017-10-16,26891.2
2017-10-17,26858.2
2017-10-18,26791.4
2017-10-19,26725.2
2017-10-20,26672.4
2017-10-21,26613.0
2017-10-22,26560.5
2017-10-23,26442.4
2017-10-24,26350.0
2017-10-25,26277.4
2017-10-26,26212.0
2017-10-27,26126.6
2017-10-28,26041.8
2017-10-29,25989.0
2017-10-30,25937.0
2017-10-31,25937.0
2017-11-01,25872.0
2017-11-02,25832.6
2017-11-03,25793.0
2017-11-04,25780.0
2017-11-05,25702.0
2017-11-06,25663.0
2017-11-07,25631.0
2017-11-08,25611.8
2017-11-09,25560.0
2017-11-10,25540.5
2017-11-11,25482.8
2017-11-12,25431.0
2017-11-13,25385.5
2017-11-14,25308.0
2017-11-15,25243.5
2017-11-16,25153.4
2017-11-17,25211.0
2017-11-18,25134.2
2017-11-19,25076.6
2017-11-20,25006.2
2017-11-21,24955.0
2017-11-22,24865.4
2017-11-23,24833.4
2017-11-24,24763.0
2017-11-25,24699.0
2017-11-26,24661.2
2017-11-27,24636.0
2017-11-28,24572.0
2017-11-29,24515.3
2017-11-30,24464.9
2017-12-01,24388.4
2017-12-02,24312.6
2017-12-03,24267.8
2017-12-04,24154.2
2017-12-05,24054.4
2017-12-06,23953.6
2017-12-07,23840.8
2017-12-08,23784.5
2017-12-09,23728.2
2017-12-10,23672.4
2017-12-11,23585.6
2017-12-12,23497.8
2017-12-13,23404.8
2017-12-14,23330.4
2017-12-15,23280.8
2017-12-16,23262.2
2017-12-17,23262.2
2017-12-18,23262.2
2017-12-19,23256.0
2017-12-20,23262.2
2017-12-21,23280.8
2017-12-22,23268.4
2017-12-23,23280.8
2017-12-24,23262.2
2017-12-25,23256.0
2017-12-26,23262.2
2017-12-27,23249.9
2017-12-28,23262.2
2017-12-29,23256.0
2017-12-30,23243.8
2017-12-31,23243.8
2018-01-01,23237.7
2018-01-02,23237.7
2018-01-03,23225.5
2018-01-04,23219.4
2018-01-05,23213.3
2018-01-06,23207.2
2018-01-07,23201.1
2018-01-08,23213.3
2018-01-09,23201.1
2018-01-10,23225.5
2018-01-11,23225.5
2018-01-12,23225.5
2018-01-13,23225.5
2018-01-14,23207.2
2018-01-15,23213.3
2018-01-16,23195.0
2018-01-17,23195.0
2018-01-18,23188.8
2018-01-19,23170.2
2018-01-20,23182.6
2018-01-21,23201.1
2018-01-22,23195.0
2018-01-23,23182.6
2018-01-24,23170.2
2018-01-25,23157.8
2018-01-26,23157.8
2018-01-27,23164.0
2018-01-28,23151.6
2018-01-29,23157.8
2018-01-30,23151.6
2018-01-31,23145.4
2018-02-01,23139.2
2018-02-02,23145.4
2018-02-03,23151.6
2018-02-04,23133.0
2018-02-05,23145.4
2018-02-06,23164.0
2018-02-07,23151.6
2018-02-08,23157.8
2018-02-09,23157.8
2018-02-10,23182.6
2018-02-11,23182.6
2018-02-12,23225.5
2018-02-13,23225.5
2018-02-14,23249.9
2018-02-15,23262.2
2018-02-16,23268.4
2018-02-17,23268.4
2018-02-18,23262.2
2018-02-19,23324.2
2018-02-20,23318.0
2018-02-21,23361.4
2018-02-22,23386.2
2018-02-23,23392.4
2018-02-24,23411.0
2018-02-25,23411.0
2018-02-26,23398.6
2018-02-27,23411.0
2018-02-28,23417.2
2018-03-01,23411.0
2018-03-02,23417.2
2018-03-03,23404.8
2018-03-04,23411.0
2018-03-05,23392.4
2018-03-06,23411.0
2018-03-07,23398.6
2018-03-08,23404.8
2018-03-09,23404.8
2018-03-10,23398.6
2018-03-11,23404.8
2018-03-12,23411.0
2018-03-13,23417.2
2018-03-14,23429.6
2018-03-15,23460.6
2018-03-16,23460.6
2018-03-17,23485.4
2018-03-18,23504.0
2018-03-19,23516.6
2018-03-20,23522.9
2018-03-21,23529.2
2018-03-22,23529.2
2018-03-23,23579.4
2018-03-24,23585.6
2018-03-25,23598.0
2018-03-26,23610.4
2018-03-27,23647.6
2018-03-28,23678.6
2018-03-29,23697.2
2018-03-30,23691.0
2018-03-31,23703.4
2018-04-01,23709.6
2018-04-02,23746.8
2018-04-03,23753.0
2018-04-04,23746.8
2018-04-05,23759.3
2018-04-06,23765.6
2018-04-07,23822.2
2018-04-08,23991.4
2018-04-09,24122.8
2018-04-10,24236.1
2018-04-11,24363.1
2018-04-12,24394.8
2018-04-13,24356.8
2018-04-14,24299.8
2018-04-15,24210.9
2018-04-16,24242.4
2018-04-17,24267.8
2018-04-18,24267.8
2018-04-19,24293.4
2018-04-20,24319.0
2018-04-21,24306.2
2018-04-22,24312.6
2018-04-23,24369.4
2018-04-24,24452.3
2018-04-25,24471.2
2018-04-26,24559.4
2018-04-27,24597.6
2018-04-28,24546.8
2018-04-29,24496.4
2018-04-30,24439.6
2018-05-01,24388.4
2018-05-02,24312.6
2018-05-03,24248.7
2018-05-04,24223.5
2018-05-05,24204.6
2018-05-06,24236.1
2018-05-07,24293.4
2018-05-08,24420.4
2018-05-09,24584.8
2018-05-10,24775.8
2018-05-11,24948.6
2018-05-12,24993.4
2018-05-13,24923.0
2018-05-14,24839.8
2018-05-15,24795.0
2018-05-16,24871.8
2018-05-17,24948.6
2018-05-18,24961.4
2018-05-19,24961.4
2018-05-20,24884.6
2018-05-21,24788.6
2018-05-22,24718.2
2018-05-23,24827.0
2018-05-24,24923.0
2018-05-25,25006.2
2018-05-26,24955.0
2018-05-27,24916.6
2018-05-28,24865.4
2018-05-29,24839.8
2018-05-30,24820.6
2018-05-31,24731.0
2018-06-01,24597.6
2018-06-02,24426.8
2018-06-03,24509.0
2018-06-04,24540.5
2018-06-05,24540.5
2018-06-06,24477.5
2018-06-07,24414.0
2018-06-08,24325.3
2018-06-09,24280.6
2018-06-10,24204.6
2018-06-11,24104.2
2018-06-12,23972.5
2018-06-13,23878.0
2018-06-14,23809.7
2018-06-15,23784.5
2018-06-16,23803.4
2018-06-17,23853.2
2018-06-18,23840.8
2018-06-19,23753.0
2018-06-20,23604.2
2018-06-21,23479.2
2018-06-22,23330.4
2018-06-23,23182.6
2018-06-24,23095.8
2018-06-25,23040.0
2018-06-26,22960.2
2018-06-27,22910.8
2018-06-28,22806.7
2018-06-29,22715.2
2018-06-30,22648.1
2018-07-01,22562.7
2018-07-02,22465.1
2018-07-03,22247.0
2018-07-04,22108.0
2018-07-05,21951.0
2018-07-06,21748.0
2018-07-07,21550.1
2018-07-08,21414.0
2018-07-09,21283.6
2018-07-10,21147.0
2018-07-11,21040.7
2018-07-12,20982.4
2018-07-13,20894.4
2018-07-14,20842.1
2018-07-15,20800.8
2018-07-16,20800.8
2018-07-17,20731.0
2018-07-18,20666.2
2018-07-19,20631.4
2018-07-20,20596.6
2018-07-21,20585.0
2018-07-22,20550.2
2018-07-23,20515.4
2018-07-24,20550.2
2018-07-25,20544.4
2018-07-26,20561.8
2018-07-27,20544.4
2018-07-28,20532.8
2018-07-29,20509.6
2018-07-30,20486.4
2018-07-31,20445.8
2018-08-01,20422.3
2018-08-02,20352.0
2018-08-03,20299.8
2018-08-04,20282.4
2018-08-05,20265.0
2018-08-06,20230.2
2018-08-07,20172.8
2018-08-08,20109.4
2018-08-09,20080.6
2018-08-10,20035.0
2018-08-11,20000.8
2018-08-12,19966.4
2018-08-13,19925.8
2018-08-14,19885.8
2018-08-15,19863.0
2018-08-16,19834.0
2018-08-17,19816.6
2018-08-18,19805.0
2018-08-19,19776.5
2018-08-20,19753.7
2018-08-21,19736.6
2018-08-22,19725.2
2018-08-23,19742.3
2018-08-24,19708.1
2018-08-25,19708.1
2018-08-26,19696.7
2018-08-27,19679.8
2018-08-28,19629.3
2018-08-29,19600.8
2018-08-30,19560.9
2018-08-31,19566.6
2018-09-01,19538.1
2018-09-02,19543.8
2018-09-03,19538.1
2018-09-04,19543.8
2018-09-05,19526.7
2018-09-06,19464.0
2018-09-07,19424.8
2018-09-08,19413.6
2018-09-09,19430.4
2018-09-10,19413.6
2018-09-11,19385.2
2018-09-12,19402.3
2018-09-13,19385.2
2018-09-14,19379.5
2018-09-15,19368.1
2018-09-16,19362.4
2018-09-17,19362.4
2018-09-18,19339.6
2018-09-19,19339.6
2018-09-20,19333.9
2018-09-21,19311.1
2018-09-22,19311.1
2018-09-23,19299.7
2018-09-24,19299.7
2018-09-25,19288.4
2018-09-26,19282.8
2018-09-27,19316.8
2018-09-28,19294.0
2018-09-29,19277.2
2018-09-30,19271.6
2018-10-01,19260.4
2018-10-02,19316.8
2018-10-03,19436.0
2018-10-04,19475.4
2018-10-05,19469.7
2018-10-06,19441.6
2018-10-07,19419.2
2018-10-08,19402.3
2018-10-09,19385.2
2018-10-10,19385.2
2018-10-11,19424.8
2018-10-12,19447.2
2018-10-13,19452.8
2018-10-14,19452.8
2018-10-15,19441.6
2018-10-16,19430.4
2018-10-17,19436.0
2018-10-18,19436.0
2018-10-19,19441.6
2018-10-20,19452.8
2018-10-21,19452.8
2018-10-22,19469.7
2018-10-23,19498.2
2018-10-24,19538.1
2018-10-25,19543.8
2018-10-26,19538.1
2018-10-27,19538.1
2018-10-28,19538.1
2018-10-29,19543.8
2018-10-30,19538.1
2018-10-31,19572.3
2018-11-01,19572.3
2018-11-02,19543.8
2018-11-03,19560.9
2018-11-04,19555.2
2018-11-05,19521.0
2018-11-06,19492.5
2018-11-07,19469.7
2018-11-08,19447.2
2018-11-09,19419.2
2018-11-10,19385.2
2018-11-11,19373.8
2018-11-12,19356.7
2018-11-13,19356.7
2018-11-14,19356.7
2018-11-15,19356.7
2018-11-16,19362.4
2018-11-17,19356.7
2018-11-18,19356.7
2018-11-19,19345.3
2018-11-20,19351.0
2018-11-21,19345.3
2018-11-22,19356.7
2018-11-23,19368.1
2018-11-24,19351.0
2018-11-25,19379.5
2018-11-26,19373.8
2018-11-27,19356.7
2018-11-28,19356.7
2018-11-29,19339.6
2018-11-30,19345.3
2018-12-01,19345.3
2018-12-02,19339.6
2018-12-03,19322.5
2018-12-04,19322.5
2018-12-05,19316.8
2018-12-06,19305.4
2018-12-07,19305.4
2018-12-08,19305.4
2018-12-09,19294.0
2018-12-10,19282.8
2018-12-11,19266.0
2018-12-12,19260.4
2018-12-13,19238.0
2018-12-14,19232.4
2018-12-15,19210.0
2018-12-16,19193.2
2018-12-17,19182.0
2018-12-18,19170.8
2018-12-19,19165.2
2018-12-20,19137.2
2018-12-21,19131.6
2018-12-22,19114.8
2018-12-23,19098.0
2018-12-24,19092.4
2018-12-25,19075.6
2018-12-26,19070.0
2018-12-27,19052.9
2018-12-28,19052.9
2018-12-29,19041.5
2018-12-30,19035.8
2018-12-31,19018.7
2019-01-01,19041.5
2019-01-02,19013.0
2019-01-03,19001.8
2019-01-04,18996.2
2019-01-05,19007.4
2019-01-06,19024.4
2019-01-07,19024.4
2019-01-08,19018.7
2019-01-09,19013.0
2019-01-10,19018.7
2019-01-11,19030.1
2019-01-12,19024.4
2019-01-13,19024.4
2019-01-14,19024.4
2019-01-15,19018.7
2019-01-16,19047.2
2019-01-17,19035.8
2019-01-18,19041.5
2019-01-19,19047.2
2019-01-20,19041.5
2019-01-21,19041.5
2019-01-22,19052.9
2019-01-23,19052.9
2019-01-24,19047.2
2019-01-25,19041.5
2019-01-26,19035.8
2019-01-27,19030.1
2019-01-28,19024.4
2019-01-29,19018.7
2019-01-30,19013.0
2019-01-31,19007.4
2019-02-01,18996.2
2019-02-02,18990.6
2019-02-03,19001.8
2019-02-04,19007.4
2019-02-05,19024.4
2019-02-06,19058.6
2019-02-07,19081.2
2019-02-08,19075.6
2019-02-09,19070.0
2019-02-10,19058.6
2019-02-11,19052.9
2019-02-12,19052.9
2019-02-13,19047.2
2019-02-14,19047.2
2019-02-15,19092.4
2019-02-16,19109.2
2019-02-17,19114.8
2019-02-18,19126.0
2019-02-19,19142.8
2019-02-20,19142.8
2019-02-21,19154.0
2019-02-22,19187.6
2019-02-23,19193.2
2019-02-24,19193.2
2019-02-25,19187.6
2019-02-26,19182.0
2019-02-27,19170.8
2019-02-28,19165.2
2019-03-01,19159.6
2019-03-02,19159.6
2019-03-03,19193.2
2019-03-04,19210.0
2019-03-05,19204.4
2019-03-06,19182.0
2019-03-07,19176.4
2019-03-08,19159.6
2019-03-09,19154.0
2019-03-10,19126.0
2019-03-11,19120.4
2019-03-12,19170.8
2019-03-13,19182.0
2019-03-14,19165.2
2019-03-15,19142.8
2019-03-16,19114.8
2019-03-17,19092.4
2019-03-18,19064.3
2019-03-19,19035.8
2019-03-20,19007.4
2019-03-21,18990.6
2019-03-22,18990.6
2019-03-23,18968.2
2019-03-24,18945.8
2019-03-25,18917.8
2019-03-26,18895.4
2019-03-27,18861.8
2019-03-28,18839.5
2019-03-29,18834.0
2019-03-30,18828.5
2019-03-31,18834.0
2019-04-01,18839.5
2019-04-02,18834.0
2019-04-03,18828.5
2019-04-04,18823.0
2019-04-05,18817.5
2019-04-06,18823.0
2019-04-07,18823.0
2019-04-08,18828.5
2019-04-09,18845.0
2019-04-10,18861.8
2019-04-11,18889.8
2019-04-12,18873.0
2019-04-13,18861.8
2019-04-14,18850.6
2019-04-15,18839.5
2019-04-16,18845.0
2019-04-17,18861.8
2019-04-18,18878.6
2019-04-19,18912.2
2019-04-20,18934.6
2019-04-21,18934.6
2019-04-22,18951.4
2019-04-23,18979.4
2019-04-24,18968.2
2019-04-25,18934.6
2019-04-26,18945.8
2019-04-27,19024.4
2019-04-28,19098.0
2019-04-29,19148.4
2019-04-30,19210.0
2019-05-01,19170.8
2019-05-02,19058.6
2019-05-03,18923.4
2019-05-04,18806.5
2019-05-05,18706.5
2019-05-06,18645.4
2019-05-07,18667.8
2019-05-08,18706.5
2019-05-09,18739.6
2019-05-10,18734.0
2019-05-11,18667.8
2019-05-12,18606.5
2019-05-13,18579.0
2019-05-14,18639.8
2019-05-15,18834.0
2019-05-16,18917.8
2019-05-17,18850.6
2019-05-18,18717.5
2019-05-19,18606.5
2019-05-20,18506.5
2019-05-21,18501.0
2019-05-22,18479.0
2019-05-23,18440.5
2019-05-24,18391.0
2019-05-25,18402.0
2019-05-26,18451.5
2019-05-27,18484.5
2019-05-28,18462.5
2019-05-29,18440.5
2019-05-30,18457.0
2019-05-31,18523.2
2019-06-01,18739.6
2019-06-02,18929.0
2019-06-03,19035.8
2019-06-04,19159.6
2019-06-05,19328.2
2019-06-06,19521.0
2019-06-07,20498.0
2019-06-08,21915.0
2019-06-09,23591.8
2019-06-10,25288.8
2019-06-11,26784.7
2019-06-12,28461.0
2019-06-13,30264.0
2019-06-14,32095.4
2019-06-15,33966.0
2019-06-16,35598.4
2019-06-17,37161.6
2019-06-18,38717.0
2019-06-19,40053.7
2019-06-20,41363.6
2019-06-21,42719.6
2019-06-22,43809.8
2019-06-23,44546.5
2019-06-24,45161.6
2019-06-25,45867.1
2019-06-26,46663.5
2019-06-27,47352.2
2019-06-28,47976.0
2019-06-29,48594.5
2019-06-30,49251.1
2019-07-01,50018.5
2019-07-02,50565.4
2019-07-03,50808.0
2019-07-04,50952.0
2019-07-05,50925.0
2019-07-06,50763.0
2019-07-07,50395.0
2019-07-08,50054.1
2019-07-09,49857.3
2019-07-10,49599.0
2019-07-11,49581.0
2019-07-12,49581.0
2019-07-13,49446.9
2019-07-14,49242.2
2019-07-15,49215.5
2019-07-16,49064.4
2019-07-17,48994.0
2019-07-18,48887.2
2019-07-19,48647.8
2019-07-20,48453.2
2019-07-21,48338.4
2019-07-22,48188.1
2019-07-23,48020.0
2019-07-24,47747.2
2019-07-25,47528.2
2019-07-26,47308.3
2019-07-27,46984.6
2019-07-28,46637.4
2019-07-29,46342.8
2019-07-30,46092.3
2019-07-31,45928.0
2019-08-01,45676.7
2019-08-02,45496.0
2019-08-03,45290.6
2019-08-04,45075.6
2019-08-05,44853.5
2019-08-06,44768.5
2019-08-07,44555.0
2019-08-08,44215.0
2019-08-09,43784.6
2019-08-10,43380.4
2019-08-11,42986.6
2019-08-12,42653.2
2019-08-13,42245.5
2019-08-14,41800.2
2019-08-15,41322.6
2019-08-16,40890.0
2019-08-17,40547.8
2019-08-18,40304.8
2019-08-19,40061.8
2019-08-20,39796.0
2019-08-21,39418.0
2019-08-22,38995.5
2019-08-23,38550.1
2019-08-24,38100.6
2019-08-25,37645.2